| time (UTC) | temp F | wind direction | speed knots | gust knots | rain 1hr in | rain 24hr in | rain mn in | humidity % | barometer mb |
| 20260504151009 | 71 | 165 | 2.6 | 5.2 | 0.00 | 0.00 | 0.00 | 60 | 1011.8 |
| 20260504150507 | 71 | 177 | 2.6 | 6.1 | 0.00 | 0.00 | 0.00 | 63 | 1011.9 |
| 20260504140933 | 68 | 131 | 0.0 | 0.9 | 0.00 | 0.00 | 0.00 | 69 | 1012.2 |
| 20260504140429 | 67 | 125 | 1.7 | 3.5 | 0.00 | 0.00 | 0.00 | 67 | 1012.4 |
| 20260504130354 | 62 | 123 | 0.9 | 2.6 | 0.00 | 0.00 | 0.00 | 77 | 1013.1 |
| 20260504120317 | 59 | 112 | 0.0 | 0.9 | 0.00 | 0.00 | 0.00 | 81 | 1013.4 |
| 20260504110241 | 58 | 161 | 0.0 | 0.9 | 0.00 | 0.00 | 0.00 | 80 | 1013.1 |
| 20260504100200 | 59 | 95 | 0.0 | 0.9 | 0.00 | 0.00 | 0.00 | 77 | 1013.1 |
| 20260504090122 | 60 | 91 | 0.0 | 0.0 | 0.00 | 0.00 | 0.00 | 75 | 1013.2 |
| 20260504081552 | 59 | 106 | 0.0 | 0.0 | 0.00 | 0.00 | 0.00 | 79 | 1013.2 |
| 20260504081048 | 58 | 113 | 0.9 | 0.9 | 0.00 | 0.00 | 0.00 | 82 | 1013.4 |
| 20260504080545 | 58 | 110 | 0.0 | 0.0 | 0.00 | 0.00 | 0.00 | 81 | 1013.2 |
| 20260504050357 | 62 | 135 | 0.0 | 5.2 | 0.00 | 0.00 | 0.00 | 65 | 1012.5 |
| 20260504045855 | 62 | 28 | 0.0 | 1.7 | 0.00 | 0.00 | 0.00 | 66 | 1012.5 |
| 20260504045349 | 62 | 203 | 1.7 | 5.2 | 0.00 | 0.00 | 0.00 | 65 | 1012.8 |
| 20260504044847 | 62 | 121 | 0.9 | 1.7 | 0.00 | 0.00 | 0.00 | 66 | 1012.8 |
| 20260504044344 | 62 | 141 | 0.9 | 2.6 | 0.00 | 0.00 | 0.00 | 64 | 1012.9 |
| 20260504043841 | 62 | 188 | 1.7 | 5.2 | 0.00 | 0.00 | 0.00 | 64 | 1013.2 |
| 20260504043338 | 63 | 104 | 0.9 | 3.5 | 0.00 | 0.00 | 0.00 | 63 | 1013.1 |
| 20260504042835 | 63 | 220 | 0.9 | 1.7 | 0.00 | 0.00 | 0.00 | 63 | 1013.1 |
| 20260504042331 | 63 | 168 | 1.7 | 3.5 | 0.00 | 0.00 | 0.00 | 63 | 1013.4 |
| 20260504041828 | 63 | 135 | 2.6 | 5.2 | 0.00 | 0.00 | 0.00 | 62 | 1013.6 |
| 20260504041324 | 63 | 282 | 0.9 | 1.7 | 0.00 | 0.00 | 0.00 | 63 | 1013.5 |
| 20260504040820 | 63 | 163 | 2.6 | 3.5 | 0.00 | 0.00 | 0.00 | 62 | 1013.6 |
| 20260504040318 | 63 | 133 | 1.7 | 2.6 | 0.00 | 0.00 | 0.00 | 62 | 1013.5 |
| 20260504035814 | 63 | 96 | 0.9 | 5.2 | 0.00 | 0.00 | 0.00 | 62 | 1013.6 |
| 20260504035311 | 63 | 145 | 2.6 | 3.5 | 0.00 | 0.00 | 0.00 | 61 | 1013.5 |
| 20260504034808 | 63 | 152 | 1.7 | 2.6 | 0.00 | 0.00 | 0.00 | 62 | 1013.6 |
| 20260504034306 | 63 | 171 | 1.7 | 2.6 | 0.00 | 0.00 | 0.00 | 61 | 1013.7 |
| 20260504033803 | 63 | 204 | 1.7 | 2.6 | 0.00 | 0.00 | 0.00 | 61 | 1013.7 |
| 20260504033301 | 63 | 131 | 0.9 | 3.5 | 0.00 | 0.00 | 0.00 | 61 | 1013.8 |
| 20260504032757 | 63 | 153 | 1.7 | 2.6 | 0.00 | 0.00 | 0.00 | 59 | 1013.5 |
| 20260504032254 | 63 | 185 | 0.9 | 0.9 | 0.00 | 0.00 | 0.00 | 60 | 1013.7 |
| 20260504031751 | 64 | 133 | 0.9 | 2.6 | 0.00 | 0.00 | 0.00 | 59 | 1013.8 |
| 20260504031249 | 64 | 217 | 0.9 | 2.6 | 0.00 | 0.00 | 0.00 | 59 | 1013.8 |
| 20260504030744 | 64 | 120 | 0.9 | 3.5 | 0.00 | 0.00 | 0.00 | 58 | 1013.8 |
| 20260504030242 | 64 | 160 | 2.6 | 7.0 | 0.00 | 0.00 | 0.00 | 58 | 1013.8 |
| 20260504025738 | 64 | 212 | 0.9 | 2.6 | 0.00 | 0.00 | 0.00 | 58 | 1014.0 |
| 20260504025235 | 64 | 209 | 1.7 | 3.5 | 0.00 | 0.00 | 0.00 | 57 | 1014.0 |
| 20260504024732 | 64 | 168 | 0.9 | 3.5 | 0.00 | 0.00 | 0.00 | 57 | 1013.9 |
| 20260504024228 | 64 | 154 | 1.7 | 2.6 | 0.00 | 0.00 | 0.00 | 56 | 1014.0 |
| 20260504023725 | 64 | 93 | 0.0 | 2.6 | 0.00 | 0.00 | 0.00 | 56 | 1014.2 |
| 20260504023221 | 65 | 193 | 3.5 | 6.1 | 0.00 | 0.00 | 0.00 | 56 | 1014.2 |
| 20260504022712 | 65 | 290 | 0.9 | 3.5 | 0.00 | 0.00 | 0.00 | 56 | 1013.9 |
| 20260504022209 | 65 | 137 | 0.9 | 2.6 | 0.00 | 0.00 | 0.00 | 55 | 1013.8 |
| 20260504021706 | 65 | 204 | 1.7 | 6.1 | 0.00 | 0.00 | 0.00 | 55 | 1013.8 |
| 20260504021203 | 65 | 31 | 2.6 | 5.2 | 0.00 | 0.00 | 0.00 | 54 | 1013.7 |
| 20260504020700 | 65 | 323 | 0.9 | 3.5 | 0.00 | 0.00 | 0.00 | 55 | 1013.7 |
| 20260504020155 | 65 | 165 | 3.5 | 5.2 | 0.00 | 0.00 | 0.00 | 54 | 1013.7 |
| 20260504015653 | 65 | 156 | 1.7 | 3.5 | 0.00 | 0.00 | 0.00 | 54 | 1013.7 |
| 20260504015149 | 65 | 130 | 0.9 | 3.5 | 0.00 | 0.00 | 0.00 | 55 | 1013.7 |
| 20260504014644 | 65 | 21 | 2.6 | 5.2 | 0.00 | 0.00 | 0.00 | 54 | 1013.8 |
| 20260504014142 | 66 | 144 | 0.0 | 5.2 | 0.00 | 0.00 | 0.00 | 55 | 1013.9 |
| 20260504013640 | 66 | 207 | 2.6 | 2.6 | 0.00 | 0.00 | 0.00 | 54 | 1013.6 |
| 20260504013136 | 66 | 204 | 3.5 | 5.2 | 0.00 | 0.00 | 0.00 | 54 | 1013.5 |
| 20260504012633 | 66 | 38 | 1.7 | 5.2 | 0.00 | 0.00 | 0.00 | 54 | 1013.7 |
| 20260504012131 | 66 | 131 | 3.5 | 6.1 | 0.00 | 0.00 | 0.00 | 53 | 1013.7 |
| 20260504011628 | 66 | 202 | 4.3 | 6.1 | 0.00 | 0.00 | 0.00 | 54 | 1013.6 |
| 20260504011125 | 66 | 131 | 2.6 | 2.6 | 0.00 | 0.00 | 0.00 | 54 | 1013.9 |
| 20260504010620 | 66 | 75 | 0.9 | 1.7 | 0.00 | 0.00 | 0.00 | 55 | 1013.7 |
| 20260504010116 | 66 | 109 | 0.9 | 7.0 | 0.00 | 0.00 | 0.00 | 54 | 1013.6 |
| 20260504005613 | 66 | 203 | 0.0 | 3.5 | 0.00 | 0.00 | 0.00 | 54 | 1013.6 |
| 20260504005110 | 66 | 124 | 0.0 | 0.9 | 0.00 | 0.00 | 0.00 | 55 | 1013.8 |
| 20260504004608 | 67 | 156 | 0.9 | 1.7 | 0.00 | 0.00 | 0.00 | 53 | 1013.7 |
| 20260504004105 | 67 | 141 | 0.0 | 2.6 | 0.00 | 0.00 | 0.00 | 52 | 1013.7 |
| 20260504003600 | 67 | 50 | 1.7 | 2.6 | 0.00 | 0.00 | 0.00 | 51 | 1013.7 |
| 20260504003057 | 68 | 176 | 0.9 | 1.7 | 0.00 | 0.00 | 0.00 | 52 | 1013.9 |
| 20260504002554 | 68 | 157 | 2.6 | 2.6 | 0.00 | 0.00 | 0.00 | 51 | 1013.9 |
| 20260504002052 | 68 | 168 | 1.7 | 1.7 | 0.00 | 0.00 | 0.00 | 50 | 1014.0 |
| 20260504001549 | 68 | 71 | 0.9 | 1.7 | 0.00 | 0.00 | 0.00 | 51 | 1013.9 |
| 20260504001045 | 69 | 332 | 0.9 | 2.6 | 0.00 | 0.00 | 0.00 | 50 | 1014.0 |
| 20260504000543 | 69 | 124 | 0.9 | 1.7 | 0.00 | 0.00 | 0.00 | 50 | 1014.1 |
| 20260504000040 | 69 | 126 | 1.7 | 3.5 | 0.00 | 0.00 | 0.00 | 48 | 1014.0 |
| 20260503235538 | 69 | 186 | 1.7 | 2.6 | 0.00 | 0.00 | 0.00 | 48 | 1014.0 |
| 20260503235035 | 70 | 128 | 0.9 | 2.6 | 0.00 | 0.00 | 0.00 | 49 | 1014.2 |
| 20260503234532 | 70 | 132 | 1.7 | 3.5 | 0.00 | 0.00 | 0.00 | 48 | 1014.0 |
| 20260503234031 | 70 | 78 | 0.0 | 1.7 | 0.00 | 0.00 | 0.00 | 48 | 1014.1 |
| 20260503233526 | 70 | 200 | 1.7 | 1.7 | 0.00 | 0.00 | 0.00 | 50 | 1014.0 |
| 20260503233023 | 70 | 216 | 0.9 | 1.7 | 0.00 | 0.00 | 0.00 | 48 | 1014.2 |
| 20260503232520 | 71 | 90 | 0.9 | 1.7 | 0.00 | 0.00 | 0.00 | 48 | 1014.3 |
| 20260503232017 | 71 | 130 | 0.9 | 5.2 | 0.00 | 0.00 | 0.00 | 46 | 1014.2 |
| 20260503231515 | 71 | 295 | 0.9 | 3.5 | 0.00 | 0.00 | 0.00 | 45 | 1014.2 |
| 20260503231012 | 71 | 238 | 1.7 | 1.7 | 0.00 | 0.00 | 0.00 | 45 | 1014.3 |
| 20260503230508 | 71 | 198 | 1.7 | 5.2 | 0.00 | 0.00 | 0.00 | 45 | 1014.2 |
| 20260503230006 | 71 | 221 | 3.5 | 5.2 | 0.00 | 0.00 | 0.00 | 44 | 1014.2 |
| 20260503225503 | 71 | 126 | 0.9 | 3.5 | 0.00 | 0.00 | 0.00 | 45 | 1014.2 |
| 20260503224958 | 71 | 211 | 2.6 | 6.1 | 0.00 | 0.00 | 0.00 | 43 | 1014.5 |
| 20260503224455 | 71 | 177 | 3.5 | 7.0 | 0.00 | 0.00 | 0.00 | 43 | 1014.6 |
| 20260503223953 | 71 | 39 | 1.7 | 6.1 | 0.00 | 0.00 | 0.00 | 43 | 1014.3 |
| 20260503223451 | 71 | 183 | 1.7 | 3.5 | 0.00 | 0.00 | 0.00 | 44 | 1014.3 |
| 20260503222946 | 71 | 341 | 0.9 | 2.6 | 0.00 | 0.00 | 0.00 | 44 | 1014.3 |
| 20260503222445 | 71 | 109 | 0.0 | 1.7 | 0.00 | 0.00 | 0.00 | 45 | 1014.4 |
| 20260503221942 | 71 | 253 | 6.1 | 9.6 | 0.00 | 0.00 | 0.00 | 43 | 1014.5 |
| 20260503221440 | 71 | 198 | 2.6 | 6.1 | 0.00 | 0.00 | 0.00 | 41 | 1014.5 |
| 20260503220937 | 72 | 113 | 2.6 | 6.1 | 0.00 | 0.00 | 0.00 | 42 | 1014.5 |
| 20260503220433 | 72 | 186 | 2.6 | 6.1 | 0.00 | 0.00 | 0.00 | 41 | 1014.5 |
| 20260503215930 | 72 | 119 | 2.6 | 5.2 | 0.00 | 0.00 | 0.00 | 41 | 1014.4 |
| 20260503215427 | 72 | 127 | 1.7 | 3.5 | 0.00 | 0.00 | 0.00 | 43 | 1014.5 |
| 20260503214925 | 72 | 147 | 1.7 | 7.8 | 0.00 | 0.00 | 0.00 | 40 | 1014.5 |
| 20260503214422 | 73 | 175 | 0.9 | 3.5 | 0.00 | 0.00 | 0.00 | 40 | 1014.7 |
| 20260503213920 | 72 | 205 | 1.7 | 7.0 | 0.00 | 0.00 | 0.00 | 40 | 1014.7 |
| 20260503213418 | 73 | 165 | 6.1 | 8.7 | 0.00 | 0.00 | 0.00 | 40 | 1014.9 |
| 20260503212914 | 73 | 208 | 1.7 | 3.5 | 0.00 | 0.00 | 0.00 | 43 | 1014.8 |
| 20260503212412 | 72 | 204 | 4.3 | 6.1 | 0.00 | 0.00 | 0.00 | 39 | 1014.7 |
| 20260503211909 | 72 | 202 | 3.5 | 12.2 | 0.00 | 0.00 | 0.00 | 42 | 1014.8 |
| 20260503211405 | 73 | 228 | 0.0 | 1.7 | 0.00 | 0.00 | 0.00 | 42 | 1015.0 |
| 20260503210900 | 73 | 99 | 1.7 | 5.2 | 0.00 | 0.00 | 0.00 | 42 | 1015.1 |
| 20260503210358 | 73 | 316 | 1.7 | 5.2 | 0.00 | 0.00 | 0.00 | 39 | 1015.3 |
| 20260503205852 | 73 | 227 | 1.7 | 11.3 | 0.00 | 0.00 | 0.00 | 39 | 1015.5 |
| 20260503205350 | 71 | 275 | 3.5 | 11.3 | 0.00 | 0.00 | 0.00 | 39 | 1015.7 |
| 20260503204846 | 71 | 35 | 1.7 | 7.8 | 0.00 | 0.00 | 0.00 | 40 | 1015.6 |
| 20260503204343 | 71 | 233 | 1.7 | 7.8 | 0.00 | 0.00 | 0.00 | 40 | 1015.8 |
| 20260503203841 | 72 | 261 | 2.6 | 7.8 | 0.00 | 0.00 | 0.00 | 39 | 1016.1 |
| 20260503203338 | 72 | 177 | 3.5 | 5.2 | 0.00 | 0.00 | 0.00 | 38 | 1016.1 |
| 20260503202835 | 71 | 228 | 2.6 | 7.0 | 0.00 | 0.00 | 0.00 | 38 | 1016.2 |
| 20260503202333 | 71 | 241 | 6.1 | 8.7 | 0.00 | 0.00 | 0.00 | 39 | 1016.4 |
| 20260503201831 | 71 | 292 | 2.6 | 7.0 | 0.00 | 0.00 | 0.00 | 41 | 1016.6 |
| 20260503201327 | 71 | 222 | 2.6 | 7.0 | 0.00 | 0.00 | 0.00 | 39 | 1016.8 |
| 20260503200825 | 71 | 111 | 1.7 | 7.0 | 0.00 | 0.00 | 0.00 | 42 | 1017.1 |
| 20260503200321 | 72 | 269 | 0.9 | 3.5 | 0.00 | 0.00 | 0.00 | 44 | 1017.2 |
| 20260503195819 | 71 | 166 | 4.3 | 9.6 | 0.00 | 0.00 | 0.00 | 39 | 1017.2 |
| 20260503195315 | 72 | 243 | 2.6 | 3.5 | 0.00 | 0.00 | 0.00 | 41 | 1017.7 |
| 20260503194813 | 71 | 17 | 3.5 | 5.2 | 0.00 | 0.00 | 0.00 | 42 | 1017.5 |
| 20260503194308 | 71 | 290 | 2.6 | 2.6 | 0.00 | 0.00 | 0.00 | 42 | 1017.7 |
| 20260503193804 | 71 | 263 | 2.6 | 5.2 | 0.00 | 0.00 | 0.00 | 42 | 1017.9 |
| 20260503193300 | 70 | 23 | 3.5 | 7.0 | 0.00 | 0.00 | 0.00 | 42 | 1017.9 |
| 20260503192756 | 70 | 182 | 0.9 | 2.6 | 0.00 | 0.00 | 0.00 | 46 | 1018.2 |
| 20260503192252 | 69 | 143 | 3.5 | 5.2 | 0.00 | 0.00 | 0.00 | 41 | 1018.1 |
| 20260503191748 | 69 | 185 | 5.2 | 7.8 | 0.00 | 0.00 | 0.00 | 41 | 1018.3 |
| 20260503191246 | 69 | 139 | 2.6 | 5.2 | 0.00 | 0.00 | 0.00 | 43 | 1018.5 |
| 20260503190742 | 70 | 113 | 0.9 | 6.1 | 0.00 | 0.00 | 0.00 | 42 | 1018.7 |
| 20260503190239 | 70 | 229 | 1.7 | 3.5 | 0.00 | 0.00 | 0.00 | 43 | 1018.7 |
| 20260503185737 | 70 | 175 | 3.5 | 5.2 | 0.00 | 0.00 | 0.00 | 42 | 1018.8 |
| 20260503185232 | 70 | 273 | 0.9 | 5.2 | 0.00 | 0.00 | 0.00 | 44 | 1019.0 |
| 20260503184727 | 69 | 204 | 0.9 | 3.5 | 0.00 | 0.00 | 0.00 | 43 | 1019.2 |
| 20260503184223 | 69 | 151 | 3.5 | 5.2 | 0.00 | 0.00 | 0.00 | 42 | 1019.4 |
| 20260503183720 | 68 | 163 | 0.9 | 7.0 | 0.00 | 0.00 | 0.00 | 42 | 1019.5 |
| 20260503183217 | 68 | 265 | 3.5 | 5.2 | 0.00 | 0.00 | 0.00 | 46 | 1019.8 |
| 20260503182716 | 68 | 278 | 1.7 | 7.8 | 0.00 | 0.00 | 0.00 | 46 | 1019.8 |
| 20260503182214 | 68 | 251 | 1.7 | 5.2 | 0.00 | 0.00 | 0.00 | 45 | 1020.0 |
| 20260503181710 | 68 | 269 | 2.6 | 3.5 | 0.00 | 0.00 | 0.00 | 45 | 1020.1 |
| 20260503181207 | 67 | 301 | 2.6 | 6.1 | 0.00 | 0.00 | 0.00 | 44 | 1020.2 |
| 20260503180703 | 67 | 304 | 1.7 | 6.1 | 0.00 | 0.00 | 0.00 | 45 | 1020.4 |
| 20260503180202 | 68 | 341 | 1.7 | 3.5 | 0.00 | 0.00 | 0.00 | 45 | 1020.7 |
| 20260503175658 | 67 | 264 | 1.7 | 2.6 | 0.00 | 0.00 | 0.00 | 45 | 1020.5 |
| 20260503175156 | 67 | 263 | 1.7 | 5.2 | 0.00 | 0.00 | 0.00 | 47 | 1020.6 |
| 20260503174652 | 68 | 206 | 2.6 | 5.2 | 0.00 | 0.00 | 0.00 | 45 | 1020.9 |
| 20260503174149 | 66 | 127 | 3.5 | 5.2 | 0.00 | 0.00 | 0.00 | 46 | 1020.8 |
| 20260503173644 | 67 | 176 | 3.5 | 5.2 | 0.00 | 0.00 | 0.00 | 51 | 1021.0 |
| 20260503173141 | 66 | 15 | 1.7 | 5.2 | 0.00 | 0.00 | 0.00 | 49 | 1021.2 |
| 20260503172638 | 66 | 224 | 0.9 | 3.5 | 0.00 | 0.00 | 0.00 | 47 | 1021.2 |
| 20260503172135 | 66 | 281 | 3.5 | 7.0 | 0.00 | 0.00 | 0.00 | 47 | 1021.3 |
| 20260503171631 | 66 | 188 | 0.9 | 3.5 | 0.00 | 0.00 | 0.00 | 49 | 1021.3 |
| 20260503171129 | 66 | 291 | 0.9 | 2.6 | 0.00 | 0.00 | 0.00 | 50 | 1021.4 |
| 20260503170626 | 65 | 253 | 0.9 | 6.1 | 0.00 | 0.00 | 0.00 | 51 | 1021.6 |
| 20260503170122 | 64 | 208 | 5.2 | 7.8 | 0.00 | 0.00 | 0.00 | 50 | 1021.6 |